Welcome to the New NWS' Forecast!
Most changes are behind the scenes, but click here for differences you might notice.

Regional Weather Roundup (RWR)

Issued by National Weather Service (NWS)

                            
000
ASUS46 KSEW 161710
RWRWA 

WASHINGTON REGIONAL WEATHER ROUNDUP
NATIONAL WEATHER SERVICE SEATTLE WA
900 AM PST FRI NOV 16 2018

NOTE:"FAIR" INDICATES FEW OR NO CLOUDS BELOW 12,000 FEET WITH NO 
SIGNIFICANT WEATHER AND/OR OBSTRUCTIONS TO VISIBILITY.

WAZ507-509-555>559-161800-
SEATTLE, TACOMA, EVERETT, AND VICINITY
  
CITY           SKY/WX    TMP DP  RH WIND       PRES   REMARKS
EVERETT        FOG       49  49 100 NW8       30.24R VSB<1/4          
BOEING FIELD   CLOUDY    52  49  89 NW3       30.23R                  
RENTON         CLOUDY    53  50  89 N5        30.23R                  
SEATAC AIRPORT CLOUDY    51  49  92 N8        30.23S FOG              
JBLM-MCCHORD   CLOUDY    51  51 100 N8        30.23R                  
PUYALLUP       DRZL/FOG  52  52 100 CALM      30.22S VSB 1/4          
BREMERTON      CLOUDY    50  48  93 NE7       30.23R                  
JBLM-FT LEWIS  CLOUDY    51  51 100 N5        30.22S FOG              
TACOMA NARROWS CLOUDY    50  49  96 N6        30.23R                  
$$
 
WAZ001-503-506-510-514-515-161800-
NORTH INTERIOR
  
CITY           SKY/WX    TMP DP  RH WIND       PRES   REMARKS
BELLINGHAM     CLOUDY    52  48  86 CALM      30.25R FOG              
FRIDAY HARBOR  PTSUNNY   50  46  86 N8        30.26S                  
EASTSOUND      CLOUDY    50  48  93 NW5       30.25S                  
PORT ANGELES   CLOUDY    50  47  89 SE9       30.27R                  
EDIZ HOOK      CLOUDY    49  47  92 SE5       30.27R                  
PORT TOWNSEND  PTSUNNY   50  50 100 W6        30.25R                  
NAS WHIDBEY    CLOUDY    53  48  83 N9        30.29R                  
ARLINGTON      CLOUDY    50  49  96 NW5       30.24S FOG              
BURLINGTON     CLOUDY    50  50 100 NW8       30.25R                  
$$
 
WAZ020-022-039-040-504-511-512-161800-
SOUTHWEST INTERIOR
  
CITY           SKY/WX    TMP DP  RH WIND       PRES   REMARKS
SHELTON        CLOUDY    52  48  86 CALM      30.21S                  
OLYMPIA        CLOUDY    51  49  92 CALM      30.23S FOG              
CHEHALIS       FOG       50  50 100 S5        30.23S VSB 1/2          
KELSO          LGT RAIN  48  47  96 S6        30.24S FOG              
VANCOUVER      CLOUDY    47  46  97 CALM      30.24S FOG              
SCAPPOOSE, OR  FOG       48  46  93 CALM      30.24R VSB 3/4          
PORTLAND, OR   CLOUDY    47  44  90 CALM      30.25R FOG              
$$
 
WAZ021-516-517-161800-
WASHINGTON COAST
  
CITY           SKY/WX    TMP DP  RH WIND       PRES   REMARKS
FORKS          PTSUNNY   45  44  97 CALM      30.22S FOG              
HOQUIAM        CLOUDY    54  54 100 CALM      30.21S FOG              
ASTORIA, OR    CLOUDY    51  51 100 CALM      30.22S FOG              
$$
 
WAZ019-023-024-040-567>569-161800-
CASCADE MOUNTAINS AND COLUMBIA GORGE
  
CITY           SKY/WX    TMP DP  RH WIND       PRES   REMARKS
STAMPEDE PASS  NOT AVBL                                               
TROUTDALE, OR  CLOUDY    46  43  89 CALM      30.24S                  
HOOD RIVER, OR CLOUDY    48  43  81 CALM      30.19S                  
THE DALLES, OR CLOUDY    51  43  74 NE8       30.19R                  
$$

WAZ026-027-041>044-520-521-161800-
EAST SLOPES
  
CITY           SKY/WX    TMP DP  RH WIND       PRES   REMARKS
OMAK           MOSUNNY   43  35  73 N14       30.26R                  
WENATCHEE      MOSUNNY   39  36  89 NW3       30.25R                  
ELLENSBURG     CLOUDY    47  39  74 NW3       30.20R                  
YAKIMA         CLOUDY    41  36  82 W3        30.23R                  
SUNNYSIDE ARPT CLOUDY    39  36  88 CALM      30.23  FOG              
YAKIMA TC      PTSUNNY   50  34  53 E10       30.20R                  
$$

WAZ028-034-035-161800-
COLUMBIA BASIN
  
CITY           SKY/WX    TMP DP  RH WIND       PRES   REMARKS
EPHRATA        CLOUDY    44  35  70 NW13      30.22R                  
MOSES LAKE     CLOUDY    41  35  79 CALM      30.24R                  
PASCO          CLOUDY    43  37  79 SW3       30.25R                  
RICHLAND ARPT  CLOUDY    44  39  82 S5        30.25                   
HERMISTON, OR  CLOUDY    42  38  85 CALM      30.22R                  
$$

WAZ036>038-161800-
NORTHEAST WASHINGTON
  
CITY           SKY/WX    TMP DP  RH WIND       PRES   REMARKS
SPOKANE GEIGER FOG       34  33  96 W6        30.17S VSB 1/8          
SPOKANE FELTS  CLOUDY    38  36  92 SW7       30.19R FOG              
FAIRCHILD AFB  FOG       35  35 100 W6        30.17R VSB 5/8          
COEURDALENE,ID FOG       38  37  97 W6        30.17R VSB 1            
DEER PARK      SUNNY     37  36  96 CALM      30.18R FOG              
$$

WAZ029>033-161800-
SOUTHEAST WASHINGTON
  
CITY           SKY/WX    TMP DP  RH WIND       PRES   REMARKS
PULLMAN        CLOUDY    42  39  89 NW9       30.18R                  
LEWISTON, ID   CLOUDY    44  41  89 S7        30.16F                  
WALLA WALLA    CLOUDY    44  38  79 SW7       30.21R                  
PENDLETON, OR  CLOUDY    45  38  76 S3        30.19R                  
$$